Showing default

COSMOS 2023 (GLONASS), 20025

Orbit data source: Space-Track

COSMOS 2023 (GLONASS), 20025 is a payload satellite owned by UNKS (CIS) in MEO that was launched on Wed, 31 May 1989 UTC via a PROTON-K/DM-2 launch vehicle from the Tyuratam Missile And Space Complex (TTMTR). Payload-class satellites include a variety of spacecraft equipped with specific instruments for various scientific and technological missions. These include communications satellites like Starlink; space stations such as the ISS; scientific satellites like the Hubble; Earth observation satellites from companies like Planet Labs, Umbra, and HawkEye 360; GPS; miniature CubeSats for education and research; and military/defense satellites.

Loading next visibility...
Identifier
20025, 1989-039B
Orbit
MEO
Country
Flag of CISCIS
Related business
Manufacturer
Omsk Av. Zav.
Mission
Non-operational Defense Navigation
Bus & Motor
URAGAN, Unknown motor
Mass
1,300 kg wet, ~1,200 kg dry
Launch date (UTC)
1989-05-31 (37 years ago)
Launch vehicle
PROTON-K/DM-2
Launch site
Tyuratam Missile And Space Complex (TTMTR)
Object type
Payload
Rocket body
Debris
Shape & HBR
Cyl + 2 Pan, 4.2 m
Radar Cross Section
14.707 m², Large (>1 m²)

Expand to show TLE details & history
Last TLE update: 19 hours ago

TLE from 19 hours ago
0 COSMOS 2023 (GLONASS)
1 20025U 89039B   25342.24929659 -.00000048  00000-0  00000-0 0  9993
2 20025  65.0785 317.7451 0020329 202.0132 211.3425  2.13103967284190
Epoch: 2025-12-08T05:58Z
TLE epoch observation values (Epoch: 2025-12-08T05:58:59.225Z)
Latitude
46.653°
Longitude
-179.81981°
Altitude
19,179.908 km
Speed
3.947 km/s
True Right ascension
23h 08m 42s
True Declination
46° 36' 18"
Sunlit
Object was in daylight at epoch
Visualization orbit readout
Latitude
Unknown
Longitude
Unknown
Altitude
Unknown
Speed
Unknown
Apparent Right ascension
Unknown
Apparent Declination
Unknown
Sunlit
N/A
Visualization observer readout
Local Sidereal Time
23:31:29
Azimuth
Unknown
Elevation
Unknown
Doppler factor
Unknown
Orbital elements
Apogee altitude
19,181.197 km
Perigee altitude
19,077.489 km
Semi-major axis
25,507.48 km
Eccentricity
0.00203
Inclination
65.0785°
RAAN
317.7451°
Arg. of periapsis
202.0132°
True anomaly
211.22159°
Mean anomaly
211.3425°
Eccentric anomaly
211.28202°
Mean motion
0.53277 °/min
Orbital period
675.71 mins
BSTAR
0
Loading maneuver chart data...
Computing Atmospheric mass density...
Loading historical data...
Loading historical data...
Loading historical data...
Loading historical data...
Loading historical data...
Loading historical data...
Loading historical data...

Documentation

Showing up to 5 results
|